Date String (YYYY-MM-DD hh:mm:ss) UTC,Instrument flags,Ambient pressure (hPa),Sample flow (lpm),Bypass flow (lpm),Sample temperature (°C),Ambient temperature (°C),ASC tube jacket temperature (°C),LED temperature (°C),Box temperature (°C),Sample RH (%),Span deviation,Mass concentration (μg/m³),Mass concentration (μg/m³),Mass concentration (μg/m³)
DateTimeUTC,F1_M11,P_M11,Q1_M11,Q2_M11,T1_M11,T2_M11,T3_M11,T4_M11,T5_M11,U1_M11,ZSPAN_M11,X0_M11,X2_M11,X1_M11
2022-11-10 14:00:00,,0821.9,4.98,0.00,21.9,20.8,00.0,30.6,23.7,08.0,0000.0,0001.21,0000.30,0000.16
2022-11-10 14:01:00,,0821.9,4.99,0.00,21.8,20.6,00.0,30.6,23.7,08.1,0000.0,0001.19,0000.30,0000.16
2022-11-10 14:02:00,,0822.0,5.01,0.00,21.8,20.5,00.0,30.6,23.6,08.0,0000.0,0001.10,0000.28,0000.16
2022-11-10 14:03:00,,0821.9,5.00,0.00,21.8,20.5,00.0,30.6,23.6,08.0,0000.0,0002.30,0000.42,0000.17
2022-11-10 14:04:00,,0822.0,5.01,0.00,21.8,20.5,00.0,30.6,23.6,08.0,0000.0,0002.92,0000.51,0000.18
2022-11-10 14:05:00,,0822.0,5.00,0.00,21.8,20.5,00.0,30.6,23.7,08.1,0000.0,0003.00,0000.54,0000.18
2022-11-10 14:06:00,,0822.0,5.00,0.00,21.8,20.5,00.0,30.6,23.7,08.0,0000.0,0004.24,0000.79,0000.20
2022-11-10 14:07:00,,0821.8,4.99,0.00,21.8,20.5,00.0,30.6,23.6,08.0,0000.0,0007.88,0001.49,0000.26
2022-11-10 14:08:00,,0822.0,5.00,0.00,21.8,20.5,00.0,30.6,23.6,07.9,0000.0,0008.05,0001.53,0000.27
2022-11-10 14:09:00,,0821.9,5.00,0.00,21.8,20.4,00.0,30.6,23.6,08.0,0000.0,0008.15,0001.59,0000.27
2022-11-10 14:10:00,,0821.8,5.01,0.00,21.8,20.3,00.0,30.6,23.5,07.9,0000.0,0008.27,0001.64,0000.28
2022-11-10 14:11:00,,0821.8,5.00,0.00,21.8,20.3,00.0,30.6,23.5,07.9,0000.0,0008.27,0001.66,0000.28
2022-11-10 14:12:00,,0821.8,5.00,0.00,21.8,20.3,00.0,30.6,23.5,07.9,0000.0,0008.30,0001.68,0000.28
2022-11-10 14:13:00,,0821.9,5.01,0.00,21.8,21.1,00.0,30.6,23.7,07.9,0000.0,0008.33,0001.71,0000.29
2022-11-10 14:14:00,,0822.0,4.99,0.00,21.9,22.3,00.0,30.6,24.0,07.9,0000.0,0007.54,0001.55,0000.29
2022-11-10 14:15:00,,0822.0,5.00,0.00,22.0,22.5,00.0,30.7,24.1,07.7,0000.0,0007.17,0001.45,0000.28
2022-11-10 14:16:00,,0821.9,4.99,0.00,22.1,22.1,00.0,30.7,24.1,07.6,0000.0,0007.07,0001.43,0000.28
2022-11-10 14:17:00,,0822.1,5.00,0.00,22.1,21.8,00.0,30.7,24.1,07.7,0000.0,0005.52,0001.13,0000.26
2022-11-10 14:18:00,,0822.0,5.00,0.00,22.1,21.5,00.0,30.8,24.0,07.7,0000.0,0001.49,0000.47,0000.21
2022-11-10 14:19:00,,0821.9,5.00,0.00,22.1,21.2,00.0,30.8,24.0,07.8,0000.0,0001.44,0000.47,0000.22
2022-11-10 14:20:00,,0822.1,5.00,0.00,22.1,21.0,00.0,30.8,23.9,07.9,0000.0,0001.32,0000.44,0000.22
2022-11-10 14:21:00,,0821.9,5.01,0.00,22.1,20.9,00.0,30.8,23.9,07.8,0000.0,0000.88,0000.40,0000.22
2022-11-10 14:22:00,,0821.9,4.99,0.00,22.1,20.8,00.0,30.8,23.9,07.7,0000.0,0000.73,0000.36,0000.22
2022-11-10 14:23:00,,0821.8,4.98,0.00,22.1,20.7,00.0,30.8,23.9,07.7,0000.0,0000.66,0000.35,0000.23
2022-11-10 14:24:00,,0821.8,5.01,0.00,22.1,20.7,00.0,30.8,23.9,07.7,0000.0,0000.66,0000.32,0000.22
2022-11-10 14:25:00,,0821.8,5.01,0.00,22.1,20.6,00.0,30.8,23.9,07.7,0000.0,0000.69,0000.32,0000.21
2022-11-10 14:26:00,,0821.8,4.99,0.00,22.1,20.7,00.0,30.8,23.9,07.8,0000.0,0000.72,0000.32,0000.21
2022-11-10 14:27:00,,0821.8,5.00,0.00,22.1,20.7,00.0,30.8,23.9,07.8,0000.0,0001.08,0000.32,0000.21
2022-11-10 14:28:00,,0822.0,4.99,0.00,22.1,20.8,00.0,30.8,23.9,07.6,0000.0,0001.10,0000.32,0000.21
2022-11-10 14:29:00,,0822.0,5.01,0.00,22.1,20.8,00.0,30.8,23.9,07.7,0000.0,0001.07,0000.30,0000.20
2022-11-10 14:30:00,,0822.0,5.01,0.00,22.1,20.8,00.0,30.8,23.9,07.9,0000.0,0000.93,0000.26,0000.19
2022-11-10 14:31:00,,0822.1,5.00,0.00,22.0,20.7,00.0,30.8,23.9,07.7,0000.0,0001.55,0000.27,0000.20
2022-11-10 14:32:00,,0822.1,5.00,0.00,22.0,20.7,00.0,30.8,23.9,07.7,0000.0,0001.68,0000.30,0000.22
2022-11-10 14:33:00,,0822.2,4.99,0.00,22.0,20.7,00.0,30.8,23.9,07.8,0000.0,0001.75,0000.31,0000.22
2022-11-10 14:34:00,,0822.2,5.00,0.00,22.0,20.8,00.0,30.8,23.9,07.9,0000.0,0001.94,0000.32,0000.22
2022-11-10 14:35:00,,0822.2,5.01,0.00,22.0,20.8,00.0,30.8,23.9,08.0,0000.0,0001.98,0000.33,0000.22
2022-11-10 14:36:00,,0822.2,5.01,0.00,22.0,20.8,00.0,30.8,23.9,07.9,0000.0,0001.99,0000.35,0000.23
2022-11-10 14:37:00,,0821.9,4.99,0.00,22.0,20.8,00.0,30.8,23.9,08.0,0000.0,0002.00,0000.38,0000.26
2022-11-10 14:38:00,,0821.9,5.00,0.00,22.0,20.7,00.0,30.8,23.9,07.9,0000.0,0001.66,0000.41,0000.30
2022-11-10 14:39:00,,0822.1,5.01,0.00,22.0,20.7,00.0,30.8,23.9,07.8,0000.0,0001.70,0000.45,0000.32
2022-11-10 14:40:00,,0822.1,4.99,0.00,22.0,20.7,00.0,30.8,23.9,07.9,0000.0,0001.73,0000.47,0000.34
2022-11-10 14:41:00,,0822.0,4.99,0.00,22.0,20.7,00.0,30.8,23.9,07.7,0000.0,0001.73,0000.47,0000.34
2022-11-10 14:42:00,,0822.1,5.00,0.00,22.0,20.8,00.0,30.8,23.9,07.8,0000.0,0001.00,0000.44,0000.32
2022-11-10 14:43:00,,0822.2,5.00,0.00,22.0,20.8,00.0,30.8,23.8,07.8,0000.0,0000.92,0000.42,0000.31
2022-11-10 14:44:00,,0822.2,5.01,0.00,22.0,20.8,00.0,30.8,23.9,07.7,0000.0,0000.84,0000.40,0000.31
2022-11-10 14:45:00,,0822.2,5.01,0.00,22.0,20.8,00.0,30.9,23.9,07.7,0000.0,0000.66,0000.40,0000.30
2022-11-10 14:46:00,,0822.2,4.99,0.00,22.0,20.8,00.0,30.8,23.9,07.8,0000.0,0000.59,0000.39,0000.30
2022-11-10 14:47:00,,0822.1,4.99,0.00,22.0,20.8,00.0,30.8,23.9,07.8,0000.0,0000.54,0000.37,0000.29
2022-11-10 14:48:00,,0821.8,5.01,0.00,22.0,20.8,00.0,30.8,23.9,07.8,0000.0,0000.53,0000.34,0000.26
2022-11-10 14:49:00,,0821.9,5.02,0.00,22.0,20.6,00.0,30.8,23.8,07.8,0000.0,0000.63,0000.33,0000.23
2022-11-10 14:50:00,,0822.1,4.99,0.00,22.0,20.5,00.0,30.8,23.7,07.9,0000.0,0000.72,0000.35,0000.21
2022-11-10 14:51:00,,0822.2,4.99,0.00,21.9,20.4,00.0,30.8,23.7,08.0,0000.0,0000.88,0000.37,0000.21
2022-11-10 14:52:00,,0822.2,4.99,0.00,21.9,20.4,00.0,30.8,23.7,07.8,0000.0,0000.97,0000.38,0000.20
2022-11-10 14:53:00,,0822.1,5.00,0.00,21.9,20.5,00.0,30.8,23.7,07.9,0000.0,0001.00,0000.39,0000.20
2022-11-10 14:54:00,,0822.1,5.01,0.00,21.9,20.5,00.0,30.8,23.7,07.7,0000.0,0000.99,0000.38,0000.21
2022-11-10 14:55:00,,0822.1,5.00,0.00,22.0,21.3,00.0,30.8,23.9,07.7,0000.0,0000.98,0000.38,0000.20
2022-11-10 14:56:00,,0822.1,4.99,0.00,22.1,22.3,00.0,30.8,24.1,07.7,0000.0,0000.97,0000.37,0000.20
2022-11-10 14:57:00,,0822.0,5.00,0.00,22.2,22.2,00.0,30.8,24.2,07.7,0000.0,0000.97,0000.38,0000.20
2022-11-10 14:58:00,,0822.1,5.01,0.00,22.2,22.0,00.0,30.9,24.2,07.7,0000.0,0000.96,0000.38,0000.20
2022-11-10 14:59:00,,0822.1,4.98,0.00,22.2,21.8,00.0,30.9,24.2,07.7,0000.0,0000.98,0000.38,0000.20
